Temperature
21 20 19 20 25 28 28 28 28 28 28 27 26 26 27 26 25 24 21 20 20 20 19 19 19 19 19 19 19 19 19 19 19 19 19 19 19 19 19 19 19 19 19 19 19 19 19 19 19
20 20 20 24 28 28 28 28 28 28 27 26 26 26 26 25 23 21 20 20 20 20 19 19 19 19 19 19 19 19 19 19 19 19 19 19 19 19 19 19 19 19 19 19 19 19 19 18 18
20 20 23 28 29 29 28 29 28 27 26 26 26 26 25 23 22 21 20 20 20 19 19 19 19 19 19 19 19 19 19 19 19 19 19 19 19 19 19 19 19 19 19 19 19 19 18 18 18
21 22 26 29 29 29 29 29 28 28 27 26 26 25 23 21 21 21 20 20 20 20 19 19 19 19 19 19 19 19 19 19 19 19 19 19 19 19 19 19 18 18 18 19 18 19 19 18 18
21 26 29 30 29 29 30 29 28 29 28 27 26 26 23 21 21 20 20 20 20 20 19 19 19 19 19 19 19 19 19 19 19 19 19 19 19 19 19 19 19 18 18 18 18 18 18 18 18
26 29 30 30 29 29 30 29 28 29 27 26 26 26 22 21 21 20 20 20 20 20 19 19 19 19 19 19 19 19 19 19 19 19 19 19 19 19 19 19 19 19 19 18 18 18 18 18 18
28 30 30 30 30 29 29 29 29 29 28 27 26 26 23 21 21 20 20 20 20 20 20 19 19 19 19 19 19 19 19 19 19 19 19 19 19 19 19 19 19 19 19 18 18 18 18 18 18
28 31 31 31 30 30 29 29 28 28 27 26 26 26 24 21 21 21 20 20 20 20 20 19 19 19 19 19 19 19 19 19 19 19 19 19 19 19 19 19 19 19 19 18 18 18 18 18 18
27 31 31 31 30 30 30 29 28 27 27 26 25 25 23 21 21 21 21 20 20 19 20 20 20 19 19 19 19 19 19 19 19 19 19 19 18 18 18 18 19 19 19 19 18 18 18 18 18
30 31 31 31 31 31 30 29 28 28 27 26 25 23 22 22 22 22 22 21 20 20 20 19 19 19 19 19 19 18 18 19 18 18 18 18 18 18 18 18 19 19 19 19 19 18 18 18 18
31 31 31 31 31 30 30 29 29 29 29 27 26 23 22 22 22 22 22 22 21 20 20 19 19 19 19 19 19 19 19 18 18 18 18 18 18 18 18 18 18 18 18 18 18 18 18 18 18
31 31 31 31 30 30 30 30 29 29 28 27 25 24 23 23 23 23 22 22 21 20 20 19 19 19 19 19 19 19 19 19 19 18 18 18 18 18 18 18 18 18 18 18 18 18 18 18 18
32 31 31 31 30 30 30 30 29 28 27 26 25 24 24 23 23 22 22 21 21 20 20 19 19 19 19 19 18 19 18 19 19 18 18 18 18 18 18 18 18 18 18 18 18 18 18 18 18
31 31 31 31 31 30 30 30 29 28 27 26 25 24 24 23 23 22 22 21 21 20 20 19 19 19 19 19 19 18 19 19 18 18 18 18 18 18 18 18 18 18 18 18 18 18 18 18 18
31 32 32 31 31 30 31 30 30 28 27 26 26 25 24 23 23 22 22 21 21 20 20 20 20 19 19 19 19 19 19 19 18 18 18 18 18 18 18 18 18 18 18 18 18 18 18 18 18
32 32 32 32 31 31 31 30 30 28 27 27 26 25 24 23 23 22 22 21 21 20 20 20 20 19 20 19 19 19 19 18 18 18 18 18 18 18 18 18 18 18 18 18 18 18 18 18 18
33 32 32 32 32 32 31 31 30 28 28 27 26 25 24 23 23 22 22 21 21 20 20 20 20 20 20 19 19 19 19 18 18 18 18 18 18 18 18 18 18 18 18 18 18 18 18 18 18
32 32 32 32 32 32 31 31 30 29 28 28 27 26 25 24 23 22 22 21 21 21 21 20 20 20 20 19 19 19 19 18 18 18 18 18 18 18 18 18 18 18 18 18 18 18 18 18 18
32 32 32 32 32 32 31 31 31 29 29 28 27 26 25 25 24 23 22 21 21 21 21 21 20 20 20 19 19 19 19 19 18 18 18 18 18 18 18 18 18 18 18 18 17 17 17 17 17
32 32 32 32 32 31 31 31 31 30 29 28 28 27 26 25 24 23 22 22 21 21 21 21 21 20 20 19 19 19 19 18 18 19 18 18 18 18 18 18 18 18 18 18 17 17 17 17 17
32 32 32 32 31 32 31 31 31 30 29 28 28 27 26 25 24 23 22 22 21 21 21 21 21 20 20 20 19 19 19 19 19 18 18 18 18 18 18 18 18 18 18 18 18 17 17 18 17
32 32 32 32 31 32 32 31 31 31 30 29 28 27 27 25 25 23 22 22 21 21 21 21 21 21 20 20 19 19 19 19 19 18 18 18 18 18 18 18 18 18 18 18 17 17 17 17 18
32 32 32 32 32 32 32 32 32 31 31 30 29 28 27 26 25 24 23 22 22 21 21 21 21 21 20 20 19 19 19 19 19 18 18 18 18 18 18 18 18 18 18 18 17 17 17 17 17
31 31 31 32 32 31 31 31 31 32 31 31 30 28 27 26 25 24 23 22 22 21 21 21 21 20 20 20 19 19 19 19 18 18 18 18 18 18 18 18 18 18 18 17 17 17 17 17 17
31 31 31 30 31 31 31 31 31 31 31 30 30 28 27 26 25 24 23 22 21 21 20 20 20 20 20 20 20 19 19 19 18 18 18 18 18 18 18 18 18 18 18 17 17 17 17 17 17
31 32 30 30 30 31 31 31 31 31 30 29 29 28 27 26 25 24 23 22 21 21 20 20 20 20 20 20 20 19 19 18 18 18 18 18 18 18 18 18 18 18 17 17 17 17 17 17 17
31 32 33 32 31 31 31 31 31 30 30 29 28 28 27 26 25 24 23 22 21 21 20 20 20 20 20 19 19 19 19 19 18 18 18 18 18 18 18 18 18 18 17 17 17 17 17 17 16
32 32 32 31 29 29 30 31 31 30 29 29 28 28 27 26 25 24 23 22 21 21 20 20 20 20 19 19 19 19 18 18 18 18 18 18 18 18 18 17 17 17 17 17 17 16 16 16 16
30 31 31 31 31 30 30 31 31 29 29 29 28 27 26 26 25 24 23 22 21 21 20 20 19 19 19 19 19 19 18 18 18 17 17 17 17 17 17 17 17 17 17 16 16 16 16 16 16
31 31 31 30 29 30 30 30 30 30 29 28 27 26 25 25 24 23 22 21 21 20 20 20 19 19 19 19 19 18 18 18 17 17 17 17 17 17 17 17 17 16 16 16 16 16 15 15 15
Wind_Speed
12 9 6 4 3 4 11 9 8 8 7 7 6 5 6 7 6 5 5 5 6 7 9 10 9 9 9 9 9 9 10 11 11 11 11 12 12 13 13 12 12 11 11 11 10 10 11 10 9
8 6 4 4 2 9 11 9 9 9 7 6 6 6 7 8 8 7 6 5 7 8 9 10 10 9 9 9 9 9 10 10 10 10 11 11 11 12 12 12 12 11 10 10 10 10 10 9 9
6 5 3 0 7 10 10 9 9 8 6 5 5 6 6 6 6 5 7 7 8 9 10 12 10 10 10 9 8 9 9 9 9 10 10 10 11 11 11 12 11 10 10 9 9 9 8 8 8
4 4 2 3 11 11 8 8 7 7 6 5 5 7 7 6 4 7 9 8 8 9 10 13 10 10 10 9 9 9 9 9 9 9 10 10 10 10 10 11 11 10 9 8 8 7 8 8 7
4 2 3 8 12 10 7 6 5 6 6 6 6 9 9 6 8 10 10 8 8 9 10 12 11 10 9 9 9 8 8 8 8 8 9 9 9 9 9 9 9 9 8 7 7 7 7 7 7
3 1 5 10 11 8 7 6 5 7 7 6 6 8 7 6 8 9 10 8 8 9 10 11 11 10 9 9 9 8 8 8 8 8 8 8 8 7 8 8 8 7 6 6 6 6 6 6 6
2 4 8 10 9 9 6 4 5 5 7 6 5 7 7 7 8 9 9 9 8 8 8 9 10 10 9 9 8 8 7 7 7 7 8 8 7 6 7 8 8 7 6 6 5 5 6 6 6
3 1 7 8 8 9 5 5 4 5 6 6 3 5 7 9 10 10 9 9 8 7 7 7 8 8 8 9 9 8 7 7 6 7 7 6 7 7 6 7 7 6 6 5 5 5 5 6 7
3 2 7 8 7 6 5 5 5 4 7 6 5 6 10 13 11 10 9 8 8 7 6 6 6 6 6 7 9 8 8 7 6 7 6 5 5 6 6 5 5 5 5 5 5 5 5 6 9
2 5 8 6 5 5 4 4 5 5 6 7 8 9 13 13 11 10 9 8 8 7 6 6 5 5 5 5 6 5 5 6 4 4 4 3 3 3 3 6 5 4 5 5 6 6 8 9 7
2 4 5 4 4 3 4 4 4 4 5 5 8 12 13 12 10 9 8 7 7 7 6 5 5 4 4 4 4 3 3 4 3 3 2 2 1 2 2 2 4 4 5 4 5 7 5 4 3
1 3 2 2 3 2 3 4 4 3 5 6 9 13 13 12 10 8 8 7 6 6 6 5 5 4 3 2 3 2 2 2 2 3 1 1 0 0 1 0 0 2 2 2 2 2 3 3 4
1 2 2 1 2 3 3 4 3 3 5 8 10 12 12 11 9 8 7 7 6 6 5 5 4 4 3 3 2 2 2 1 2 2 2 1 1 0 0 0 1 1 1 2 2 2 3 3 4
2 1 0 1 2 3 3 3 3 4 6 9 11 11 11 10 9 9 8 7 7 6 5 5 4 4 4 3 2 2 2 2 1 1 1 0 1 1 1 1 1 1 2 1 2 2 3 3 3
3 2 3 2 1 2 3 3 3 5 7 9 9 9 10 9 9 9 8 8 7 7 6 5 5 5 4 3 3 2 2 2 1 1 1 0 1 1 1 1 1 2 1 1 2 2 2 2 3
5 5 2 2 1 2 5 2 5 7 8 8 9 9 9 9 9 8 8 8 7 6 6 5 4 5 5 4 3 2 2 2 2 1 1 1 0 1 2 1 1 2 1 1 1 2 2 1 2
6 3 0 2 2 2 3 1 5 7 7 7 8 8 9 9 9 9 8 8 7 7 6 6 5 5 4 4 3 3 2 1 1 1 1 0 1 1 1 1 1 2 1 1 2 0 1 1 2
3 3 2 1 1 3 3 1 4 6 6 6 7 8 8 9 10 10 9 8 8 7 7 6 6 5 5 4 3 2 2 2 2 1 1 1 1 1 2 1 1 2 1 1 1 1 2 2 2
6 6 4 1 0 3 3 2 3 6 7 7 7 8 8 8 9 9 10 9 9 8 8 7 6 6 5 4 3 3 3 2 2 1 1 1 1 1 1 1 1 2 1 2 2 2 2 2 1
8 7 5 2 1 4 3 3 2 5 7 6 7 8 8 8 9 10 10 10 10 10 9 8 8 7 6 5 4 3 2 2 2 1 1 1 1 1 1 1 2 1 1 2 2 2 3 1 0
9 8 6 4 3 5 5 5 4 5 6 6 6 7 8 8 9 9 10 10 10 10 10 8 8 8 7 6 5 4 3 3 2 2 1 1 1 1 2 2 3 2 2 2 2 2 3 2 1
9 6 6 6 7 4 5 5 4 4 6 7 7 7 8 8 8 9 9 10 10 9 9 9 8 8 8 7 6 6 4 3 2 2 1 1 1 2 2 2 2 3 3 2 3 2 2 3 2
5 3 6 7 8 8 6 6 2 4 4 5 6 7 7 8 9 9 9 9 9 9 8 9 9 8 8 7 7 6 5 4 3 3 2 2 2 2 2 2 2 3 3 2 3 3 3 2 3
4 5 6 8 9 10 7 7 3 1 2 2 4 5 6 7 8 8 8 8 8 8 8 8 9 9 9 8 7 7 5 4 3 3 2 2 2 2 2 3 3 3 3 2 3 3 3 3 3
9 9 7 8 8 8 4 6 3 1 1 2 2 4 6 7 7 8 8 8 9 9 9 9 9 9 9 9 8 7 6 5 5 4 3 3 3 2 2 3 3 3 3 3 3 3 3 3 3
10 11 9 8 8 6 6 6 2 1 0 0 1 3 5 6 7 8 8 8 9 9 9 9 9 9 9 9 8 7 7 6 5 5 4 4 3 3 2 3 3 4 4 4 3 3 3 3 4
9 10 10 10 10 9 6 4 4 3 2 1 2 3 4 5 5 7 7 8 8 9 9 8 8 8 9 9 8 7 7 6 5 5 5 4 3 3 3 3 4 4 4 4 4 3 3 4 4
8 8 7 10 9 10 9 8 5 3 3 2 2 2 2 3 4 5 6 6 7 8 8 7 7 7 7 8 8 6 7 6 6 5 4 4 4 4 4 4 4 4 4 4 4 4 3 4 4
9 9 9 9 10 11 11 6 1 1 2 2 2 1 1 2 3 4 5 5 6 6 7 7 7 7 7 7 7 6 6 5 5 4 4 5 4 4 5 5 4 4 4 4 4 4 4 4 4
10 11 11 11 10 11 12 7 3 1 1 1 1 0 0 1 3 4 5 5 5 6 6 6 6 7 7 7 6 6 5 5 5 4 4 4 5 5 5 5 5 5 5 4 4 5 4 5 5
Wind_Direction
173 177 198 226 221 86 66 62 62 66 64 60 70 64 59 47 37 69 89 110 117 125 126 129 124 124 121 120 123 122 122 125 129 133 139 142 146 148 148 145 143 140 137 136 134 132 132 134 135
168 176 219 237 51 76 70 64 66 64 73 84 81 67 68 62 58 92 111 118 122 118 128 127 125 125 121 120 121 122 122 125 129 136 140 142 144 147 148 145 145 142 140 140 140 138 138 141 142
177 213 255 65 56 61 69 65 72 79 83 81 80 60 55 63 79 99 112 128 117 111 119 119 125 124 123 122 122 121 123 124 130 138 142 142 140 141 147 147 146 145 142 141 142 144 147 148 149
206 226 222 74 72 64 68 70 78 87 81 73 88 86 74 59 80 108 121 125 114 112 117 118 124 121 122 123 121 122 124 127 130 137 142 142 141 143 146 146 145 144 146 148 149 150 154 154 155
238 248 107 80 72 69 69 69 75 78 80 82 89 93 84 68 94 113 124 120 112 110 111 118 122 121 124 125 122 122 125 128 127 129 138 145 145 146 147 148 150 151 154 158 158 158 160 165 167
246 237 75 76 76 73 74 80 81 75 83 88 93 96 86 101 112 121 122 118 110 108 110 116 121 119 120 122 123 123 123 124 122 123 128 132 142 150 152 154 156 159 164 167 169 169 172 174 179
327 50 70 74 79 80 71 75 68 76 85 87 99 98 107 118 123 127 123 118 110 110 113 118 127 131 130 125 124 122 123 123 124 127 129 130 134 143 161 163 162 164 169 179 183 180 183 185 187
302 36 77 72 70 77 87 94 73 67 82 95 103 102 121 135 137 132 128 122 115 114 114 117 121 123 135 136 132 127 125 125 125 130 130 139 146 147 153 168 161 171 178 186 187 185 187 190 194
269 55 65 62 60 80 102 104 96 93 104 104 90 87 115 136 142 139 135 129 126 123 121 120 122 125 129 132 131 140 141 138 146 146 143 163 157 144 154 138 148 175 181 188 193 195 197 203 195
304 51 57 51 53 78 100 101 121 133 120 118 113 110 126 142 149 147 142 140 138 134 130 127 127 127 129 129 130 139 143 136 144 126 141 146 126 134 136 130 160 179 187 194 197 202 204 219 200
24 43 51 58 54 69 105 113 128 133 113 128 137 139 144 149 154 153 148 145 140 138 134 133 128 125 125 131 132 132 135 131 138 117 129 117 126 139 138 148 167 178 193 195 186 202 211 215 213
24 36 35 50 63 91 105 117 111 93 76 110 133 145 151 157 160 159 152 146 142 143 143 140 133 133 133 124 132 139 138 138 132 119 145 143 134 119 94 158 193 202 201 197 217 213 218 225 223
353 20 22 50 109 119 127 125 107 104 107 124 137 150 157 161 162 158 155 151 149 151 152 149 145 143 143 147 177 151 139 128 127 112 132 172 214 254 356 261 234 236 223 217 222 226 226 227 221
347 323 55 98 126 144 148 131 138 123 135 139 148 156 161 164 164 162 165 165 163 162 161 154 158 158 158 163 174 170 164 145 148 152 121 140 332 6 338 291 277 265 243 255 251 248 242 240 237
256 239 162 137 180 171 194 150 137 141 154 156 158 161 164 169 171 175 175 173 169 167 166 166 166 163 169 180 185 179 177 155 155 141 116 122 321 356 316 323 296 325 312 253 245 251 247 238 242
226 233 193 125 195 204 246 91 123 151 165 165 165 166 172 176 180 180 179 178 175 171 166 170 174 169 172 179 189 188 175 154 158 140 124 145 297 284 294 321 336 344 311 286 250 240 247 257 259
218 251 1 125 174 217 246 61 127 160 172 171 174 175 179 180 188 186 186 182 181 178 174 174 178 178 177 175 184 192 179 179 168 150 134 141 274 292 285 336 3 297 294 288 274 268 277 264 271
267 275 274 313 143 235 243 220 141 175 186 181 178 183 187 188 189 188 189 185 182 181 181 180 177 178 182 178 179 191 187 184 178 164 118 266 267 288 288 271 310 298 317 302 314 291 282 275 275
275 268 267 292 352 264 259 258 182 182 195 191 188 188 192 195 186 187 189 188 184 184 185 186 185 177 182 184 191 186 186 194 183 183 157 226 280 294 283 314 332 300 316 316 306 293 267 263 269
246 251 247 230 289 280 277 269 202 190 206 204 200 198 198 193 186 189 191 192 191 189 190 189 189 185 189 182 190 196 199 198 179 195 144 232 265 279 251 292 296 310 289 278 292 294 296 299 295
236 250 253 261 265 243 265 231 195 185 200 205 208 207 204 200 195 191 194 196 195 193 193 192 191 189 192 189 188 187 190 209 199 201 189 211 250 272 308 302 300 299 281 275 276 279 282 302 305
235 240 251 243 252 255 262 268 179 184 197 206 208 208 207 201 198 193 194 196 197 194 191 190 187 187 187 188 193 197 204 208 209 223 200 215 230 264 281 294 301 295 292 282 267 281 282 278 277
250 236 236 243 253 261 245 267 203 177 210 210 207 206 205 199 197 195 194 193 193 188 187 186 183 184 186 190 192 204 214 211 210 220 207 254 237 252 270 278 285 283 282 286 293 287 280 269 274
202 206 219 233 244 248 249 260 258 193 255 236 206 206 200 195 193 191 187 184 184 180 184 184 181 185 187 191 195 203 211 218 224 238 248 250 249 253 260 267 276 275 289 281 274 274 261 275 285
217 230 231 230 231 244 222 249 262 325 308 275 224 199 190 188 189 185 183 183 183 183 187 188 186 190 192 195 198 203 209 211 218 234 233 252 268 267 270 279 273 281 284 281 276 262 275 272 271
221 238 249 260 258 248 204 242 239 130 96 273 211 184 180 185 187 185 185 186 186 187 188 189 189 193 196 198 201 204 210 222 228 230 245 245 260 273 284 270 269 274 278 279 275 267 260 260 268
225 237 257 265 268 268 249 239 230 201 213 200 183 179 184 189 188 184 181 184 184 183 185 186 187 193 199 200 199 204 212 224 235 236 240 247 255 260 264 260 259 266 269 269 266 266 268 267 267
250 244 243 253 259 263 255 249 251 237 247 220 202 198 187 186 183 176 175 175 176 176 177 179 181 192 199 201 204 204 212 218 229 238 242 253 257 265 270 265 259 260 258 256 259 259 262 264 265
210 225 241 254 261 266 268 262 68 235 244 247 237 239 203 183 172 162 160 161 163 166 170 176 177 190 198 199 198 207 209 218 225 231 237 244 253 256 260 263 262 261 260 259 258 263 262 259 261
242 239 237 247 250 257 271 270 105 159 248 285 286 221 167 161 159 152 147 145 153 160 167 175 183 193 199 199 196 202 203 209 219 229 237 246 254 257 257 258 257 261 261 263 259 262 261 258 257
Height
1508 1509 1510 1512 1506 1500 1503 1502 1498 1499 1502 1505 1506 1506 1506 1508 1511 1520 1522 1519 1520 1520 1520 1521 1522 1523 1524 1525 1525 1526 1527 1527 1528 1528 1529 1530 1531 1532 1534 1535 1537 1538 1540 1541 1542 1543 1544 1545 1546
1510 1510 1512 1509 1500 1505 1507 1501 1501 1503 1506 1507 1508 1508 1509 1513 1517 1520 1520 1520 1521 1520 1521 1522 1524 1525 1526 1526 1527 1528 1528 1529 1529 1530 1531 1531 1532 1534 1535 1536 1538 1539 1541 1542 1543 1544 1545 1546 1547
1510 1511 1512 1503 1500 1504 1507 1502 1503 1506 1509 1509 1510 1511 1514 1518 1521 1522 1522 1522 1522 1522 1523 1523 1525 1526 1527 1528 1529 1529 1530 1530 1531 1531 1532 1532 1534 1535 1536 1537 1538 1540 1541 1543 1544 1545 1546 1547 1548
1512 1513 1509 1502 1503 1502 1502 1503 1505 1507 1509 1511 1511 1514 1519 1522 1523 1523 1523 1524 1525 1525 1526 1525 1527 1528 1529 1529 1530 1530 1531 1531 1532 1533 1533 1534 1535 1536 1537 1538 1539 1540 1542 1543 1544 1545 1546 1547 1548
1513 1510 1502 1502 1502 1502 1503 1505 1507 1506 1509 1511 1512 1515 1521 1524 1524 1525 1526 1527 1527 1528 1528 1528 1528 1529 1530 1531 1531 1532 1532 1533 1533 1534 1535 1536 1537 1538 1539 1540 1541 1542 1543 1544 1545 1546 1547 1548 1549
1512 1504 1502 1506 1506 1503 1504 1507 1507 1508 1511 1513 1514 1516 1523 1526 1526 1527 1528 1529 1530 1530 1531 1530 1530 1531 1531 1532 1532 1533 1534 1534 1535 1536 1536 1537 1538 1539 1540 1541 1542 1542 1543 1544 1545 1546 1547 1548 1549
1511 1502 1503 1502 1505 1505 1507 1508 1508 1509 1511 1515 1516 1518 1524 1526 1528 1529 1530 1531 1532 1532 1533 1533 1533 1533 1533 1533 1534 1534 1535 1536 1536 1537 1538 1539 1540 1540 1541 1542 1543 1543 1544 1545 1546 1546 1547 1547 1548
1511 1503 1500 1501 1504 1506 1508 1509 1511 1511 1513 1517 1518 1518 1523 1527 1528 1530 1531 1532 1533 1534 1534 1535 1535 1536 1536 1536 1536 1536 1536 1537 1538 1538 1539 1540 1541 1541 1542 1543 1543 1544 1545 1545 1546 1546 1546 1547 1548
1511 1503 1504 1503 1504 1505 1507 1509 1513 1514 1516 1518 1520 1521 1524 1527 1529 1531 1532 1534 1534 1535 1536 1536 1537 1537 1538 1538 1538 1538 1538 1539 1539 1540 1541 1541 1543 1544 1543 1544 1544 1545 1545 1545 1545 1546 1546 1547 1547
1508 1503 1505 1504 1503 1504 1508 1509 1512 1514 1515 1518 1521 1523 1525 1527 1530 1532 1533 1534 1535 1536 1537 1537 1538 1538 1539 1539 1539 1539 1540 1541 1541 1542 1542 1543 1544 1544 1545 1544 1544 1545 1545 1545 1545 1545 1546 1547 1548
1507 1505 1504 1505 1506 1507 1508 1510 1512 1511 1513 1517 1520 1524 1526 1528 1530 1532 1534 1535 1536 1537 1538 1538 1539 1539 1540 1540 1541 1541 1541 1541 1542 1542 1543 1543 1544 1544 1545 1545 1545 1545 1545 1546 1545 1545 1546 1547 1548
1507 1506 1506 1506 1508 1509 1508 1510 1512 1512 1515 1518 1521 1523 1526 1528 1530 1532 1534 1536 1537 1537 1538 1539 1539 1539 1540 1541 1541 1541 1542 1543 1543 1543 1543 1544 1544 1544 1544 1544 1545 1545 1545 1545 1544 1545 1545 1546 1547
1506 1507 1507 1507 1508 1509 1510 1510 1512 1515 1517 1519 1522 1524 1526 1528 1531 1533 1535 1536 1537 1538 1538 1539 1539 1539 1539 1540 1541 1542 1542 1543 1543 1543 1543 1544 1544 1544 1544 1544 1544 1544 1544 1544 1544 1544 1544 1545 1545
1507 1507 1506 1507 1507 1509 1509 1510 1513 1515 1518 1520 1522 1524 1526 1529 1531 1533 1534 1536 1537 1537 1538 1539 1539 1539 1540 1540 1541 1542 1543 1543 1544 1544 1544 1543 1544 1544 1544 1544 1543 1544 1543 1543 1543 1543 1543 1543 1544
1508 1505 1504 1506 1506 1507 1508 1509 1511 1514 1517 1519 1522 1524 1526 1528 1530 1532 1534 1535 1536 1537 1538 1538 1539 1540 1540 1541 1541 1542 1543 1543 1544 1544 1544 1543 1544 1543 1543 1544 1543 1543 1542 1542 1542 1542 1542 1542 1542
1504 1502 1503 1503 1505 1506 1507 1509 1509 1513 1516 1518 1520 1523 1526 1528 1530 1532 1533 1535 1536 1537 1538 1538 1540 1540 1540 1541 1541 1543 1543 1544 1544 1544 1544 1544 1543 1543 1543 1543 1543 1542 1542 1541 1541 1541 1541 1541 1541
1500 1503 1503 1503 1503 1503 1504 1506 1508 1512 1514 1516 1519 1522 1524 1527 1529 1531 1532 1534 1535 1536 1537 1538 1539 1540 1540 1541 1542 1543 1543 1543 1544 1544 1544 1544 1543 1543 1543 1543 1542 1542 1542 1541 1541 1540 1540 1540 1540
1505 1502 1503 1502 1500 1502 1502 1503 1506 1510 1512 1514 1517 1520 1522 1524 1527 1529 1530 1532 1533 1535 1536 1537 1538 1539 1540 1541 1542 1542 1543 1543 1544 1544 1544 1543 1543 1543 1543 1543 1542 1542 1542 1541 1540 1539 1538 1538 1538
1499 1501 1502 1500 1499 1501 1501 1502 1503 1508 1510 1512 1515 1518 1520 1522 1525 1527 1528 1530 1532 1533 1534 1535 1537 1538 1539 1540 1541 1542 1542 1543 1544 1544 1543 1543 1543 1542 1542 1543 1542 1541 1541 1540 1539 1538 1538 1537 1537
1500 1502 1501 1499 1499 1501 1500 1501 1500 1505 1508 1510 1513 1515 1517 1520 1522 1524 1526 1528 1530 1531 1532 1533 1535 1536 1538 1539 1540 1541 1542 1543 1543 1543 1543 1543 1542 1542 1542 1541 1541 1541 1540 1539 1538 1537 1536 1536 1536
1500 1500 1500 1502 1500 1498 1500 1502 1500 1502 1506 1508 1511 1513 1515 1517 1519 1521 1523 1525 1527 1528 1530 1532 1533 1534 1536 1537 1539 1540 1541 1542 1543 1543 1542 1542 1542 1542 1541 1541 1540 1539 1539 1538 1537 1536 1535 1535 1535
1500 1495 1497 1500 1502 1500 1500 1507 1498 1497 1501 1504 1507 1509 1512 1514 1516 1518 1520 1522 1524 1526 1528 1529 1531 1532 1534 1535 1537 1539 1540 1541 1541 1542 1542 1541 1541 1540 1540 1539 1539 1538 1538 1537 1536 1536 1535 1534 1535
1495 1494 1496 1497 1499 1501 1498 1503 1497 1493 1498 1499 1502 1505 1508 1511 1513 1516 1517 1519 1522 1524 1526 1527 1528 1530 1532 1533 1535 1536 1538 1539 1540 1540 1540 1540 1540 1539 1538 1538 1537 1537 1536 1535 1535 1534 1533 1533 1533
1495 1497 1497 1496 1496 1510 1501 1504 1502 1493 1495 1495 1498 1502 1505 1508 1511 1513 1516 1517 1519 1521 1523 1525 1526 1528 1529 1531 1533 1534 1536 1537 1537 1538 1538 1539 1539 1538 1537 1536 1535 1535 1534 1533 1533 1532 1532 1531 1531
1494 1499 1507 1511 1510 1507 1495 1501 1500 1491 1492 1494 1497 1500 1503 1506 1508 1511 1513 1515 1516 1518 1520 1522 1524 1525 1527 1529 1530 1531 1533 1534 1534 1535 1536 1536 1537 1536 1535 1534 1533 1532 1532 1531 1530 1530 1529 1529 1528
1491 1492 1507 1517 1512 1501 1498 1500 1492 1490 1494 1495 1497 1499 1501 1504 1506 1508 1510 1512 1514 1516 1518 1520 1521 1523 1525 1526 1527 1529 1530 1532 1533 1533 1533 1534 1534 1533 1532 1531 1530 1530 1529 1529 1528 1528 1527 1526 1526
1490 1489 1484 1493 1497 1502 1495 1493 1490 1490 1492 1494 1496 1498 1500 1502 1504 1505 1508 1510 1512 1514 1515 1517 1518 1520 1522 1524 1525 1526 1527 1528 1530 1530 1530 1531 1530 1530 1529 1528 1527 1527 1526 1526 1525 1525 1524 1523 1523
1486 1484 1489 1494 1511 1512 1501 1495 1491 1490 1491 1492 1495 1496 1498 1500 1502 1504 1506 1508 1510 1511 1513 1514 1515 1517 1519 1521 1522 1524 1525 1525 1526 1527 1528 1528 1528 1527 1527 1526 1525 1524 1523 1523 1522 1522 1521 1520 1520
1490 1490 1490 1489 1492 1505 1507 1496 1482 1487 1489 1491 1494 1496 1498 1499 1501 1503 1504 1506 1508 1509 1511 1512 1512 1514 1516 1517 1519 1520 1521 1523 1524 1524 1524 1525 1525 1524 1523 1523 1522 1522 1521 1520 1519 1519 1518 1518 1517
1481 1482 1486 1496 1499 1495 1497 1494 1481 1486 1488 1492 1494 1496 1498 1499 1500 1502 1504 1505 1506 1508 1509 1510 1511 1512 1514 1515 1515 1517 1518 1519 1521 1521 1521 1521 1521 1521 1521 1520 1519 1519 1518 1517 1516 1515 1516 1515 1514